Louisville, KY

7:56 PM EDT on May 25, 2017 (GMT -0400)
Louisville International-Standiford

Weather History for KSDF - February, 2014

Change the Weather History Date:

Tuesday, February 11, 2014

  Actual Average Record
Temperature  
Mean Temperature 17 °F 38 °F  
Max Temperature 27 °F 47 °F 74 °F (1999)
Min Temperature 6 °F 29 °F -1 °F (1885)
Degree Days  
Heating Degree Days 48 27  
Month to date heating degree days 407 310  
Since 1 July heating degree days 3167 2819  
Cooling Degree Days 0 0  
Month to date cooling degree days 0 0  
Year to date cooling degree days 0 0  
Moisture  
Dew Point 4 °F    
Average Humidity 59    
Maximum Humidity 76    
Minimum Humidity 42    
Precipitation  
Precipitation 0.00 in 0.11 in 1.41 in (1965)
Month to date precipitation 2.57 1.25  
Year to date precipitation 4.98 4.49  
Snow  
Snow 0.00 in 0.20 in 5.60 in (1910)
Month to date snowfall 6.6 2.0  
Since 1 July snowfall 20.7 8.5  
Snow Depth 3.00 in    
Sea Level Pressure  
Sea Level Pressure 30.45 in    
Wind  
Wind Speed 6 mph (NNE)    
Max Wind Speed 13 mph    
Max Gust Speed 18 mph    
Visibility 9 miles    
Events      
T = Trace of Precipitation, MM = Missing Value Source: NWS Daily Summary

Daily Weather History Graph

Daily Weather History Graph

Search for Another Location

Airport or City:

Trip Planner

Search our weather history database for the weather conditions in past years. The results will help you decide how hot, cold, wet, or windy it might be!

Date:

Astronomy

Feb. 11, 2014 Rise Set
Actual Time 7:37 AM EST 6:17 PM EST
Civil Twilight 7:10 AM EST 6:44 PM EST
Nautical Twilight 6:39 AM EST 7:15 PM EST
Astronomical Twilight 6:08 AM EST 7:46 PM EST
Moon 3:38 PM EST (2/11) 5:13 AM EST (2/11)
Length of Visible Light 11h 33m
Length of Day
10h 39m
Waxing Gibbous, 90% of the Moon is Illuminated
Feb 11
Waxing Gibbous
Feb 14
Full
Feb 22
Last Quarter
Mar 1
New
Mar 8
First Quarter

Hourly Weather History & Observations

Time (EST) Temp. Windchill Dew Point Humidity Pressure Visibility Wind Dir Wind Speed Gust Speed Precip Events Conditions
12:56 AM 12.9 °F 1.6 °F 3.0 °F 65% 30.43 in 8.0 mi North 8.1 mph - N/A   Overcast
1:56 AM 12.0 °F -1.3 °F 1.0 °F 61% 30.44 in 10.0 mi North 10.4 mph - N/A   Mostly Cloudy
2:56 AM 10.0 °F -0.9 °F -0.0 °F 64% 30.45 in 10.0 mi North 6.9 mph - N/A   Mostly Cloudy
3:56 AM 9.0 °F -3.2 °F -0.9 °F 64% 30.46 in 10.0 mi North 8.1 mph - N/A   Partly Cloudy
4:56 AM 8.1 °F -6.2 °F -0.9 °F 67% 30.47 in 10.0 mi North 10.4 mph - N/A   Partly Cloudy
5:56 AM 7.0 °F -3.3 °F -0.9 °F 70% 30.46 in 10.0 mi NNE 5.8 mph - N/A   Partly Cloudy
6:56 AM 7.0 °F -1.7 °F -0.9 °F 70% 30.48 in 10.0 mi North 4.6 mph - N/A   Scattered Clouds
7:56 AM 7.0 °F -1.7 °F -0.9 °F 70% 30.50 in 9.0 mi North 4.6 mph - N/A   Mostly Cloudy
8:56 AM 8.1 °F -3.2 °F -0.0 °F 70% 30.51 in 8.0 mi North 6.9 mph - N/A   Mostly Cloudy
9:56 AM 10.9 °F 2.9 °F 1.9 °F 67% 30.51 in 8.0 mi ENE 4.6 mph - N/A   Scattered Clouds
10:56 AM 15.1 °F 6.4 °F 3.0 °F 59% 30.52 in 8.0 mi Variable 5.8 mph - N/A   Scattered Clouds
11:56 AM 18.0 °F - 5.0 °F 57% 30.50 in 8.0 mi Calm Calm - N/A   Scattered Clouds
12:56 PM 21.9 °F - 5.0 °F 48% 30.48 in 9.0 mi Calm Calm - N/A   Partly Cloudy
1:56 PM 23.0 °F 15.8 °F 7.0 °F 50% 30.46 in 9.0 mi North 5.8 mph - N/A   Partly Cloudy
2:56 PM 25.0 °F 16.3 °F 6.1 °F 45% 30.44 in 10.0 mi North 8.1 mph - N/A   Partly Cloudy
3:56 PM 26.1 °F 19.4 °F 7.0 °F 44% 30.43 in 10.0 mi North 5.8 mph - N/A   Clear
4:56 PM 26.1 °F 18.4 °F 8.1 °F 47% 30.43 in 10.0 mi East 6.9 mph - N/A   Clear
5:56 PM 25.0 °F 17.1 °F 10.0 °F 53% 30.43 in 10.0 mi ENE 6.9 mph - N/A   Partly Cloudy
6:56 PM 23.0 °F 14.7 °F 10.9 °F 60% 30.43 in 10.0 mi East 6.9 mph - N/A   Partly Cloudy
7:56 PM 21.9 °F 13.4 °F 9.0 °F 58% 30.42 in 10.0 mi ENE 6.9 mph - N/A   Clear
8:56 PM 21.0 °F 13.4 °F 10.0 °F 63% 30.42 in 10.0 mi ENE 5.8 mph - N/A   Partly Cloudy
9:56 PM 19.9 °F 11.1 °F 9.0 °F 62% 30.42 in 10.0 mi NE 6.9 mph - N/A   Partly Cloudy
10:56 PM 19.0 °F 11.1 °F 9.0 °F 65% 30.40 in 10.0 mi ENE 5.8 mph - N/A   Clear
11:56 PM 18.0 °F 9.8 °F 8.1 °F 65% 30.39 in 10.0 mi ENE 5.8 mph - N/A   Partly Cloudy